Weather in Pridorozhnyj

Russia / Samara Oblast     53°05′10″N   50°09′34″E
temp.,
°C
wind,
m/s
gust,
m/s
humid.,
%
clouds,
%
prec.,
mm/h
press.,
hPa
HPBL,
m
28 february, sun
sun2801:00−11nnw4895100 0.4 1000342
04:00−13nw5995100 0.8 1002424
07:00−14nw5995100 0.4 1004408
10:00−15nw5893100 0.4 1006383
13:00−13nw5791100 0.0 1008479
16:00−13nw5791100 0.1 1010498
19:00−16nw479497 0.1 1012211
22:00−16wnw369689 0.1 1014151
1 march, mon
mon101:00−16wnw369685 0.1 1016173
04:00−18nw359685 0.1 101895
07:00−20nw239762 0.0 101927
10:00−18nw359337 0.0 1022224
13:00−14nw248859 0.0 1022405
16:00−13wnw359179 0.0 1022401
19:00−17w339565 0.0 102228
22:00−18sw239841 0.0 102220
2 march, tue
tue201:00−17sw449826 0.0 102085
04:00−16sw599659 0.0 1018177
07:00−13ssw61195100 0.1 1014313
10:00−9sw71394100 0.4 1011481
13:00−5sw81494100 0.8 1007672
16:00−3sw81396100 2.0 1004752
19:00−2sw71396100 1.9 1001615
22:00−1wsw5997100 2.7 1001351
3 march, wed
wed301:00−4w479688 0.1 1000134
04:00−5w479680 0.2 1001188
07:00−4w5896100 0.4 1001272
10:00−3wnw589497 0.8 1002436
13:00−1nw579698 0.7 1003521
16:00−1nw579197 1.0 1004588
19:00−2nw489096 0.1 1005410
22:00−5wnw479592 0.1 1008131
4 march, thu
thu401:00−7nw499471 0.0 1009195
04:00−10wnw499453 0.0 1011160
07:00−11wnw45967 0.0 101385
10:00−10w479410 0.0 1015250
13:00−7wsw579367 0.0 1015337
16:00−6sw7119278 0.0 1014523
19:00−5sw81592100 0.1 1012627
22:00−3sw91690100 0.1 1011704